Showing default

UK-DMC, 27942

Orbit data source: Space-Track

UK-DMC, 27942 is a payload satellite owned by BNSC (UK) in SSO that was launched on Sat, 27 Sep 2003 UTC via a KOSMOS 11K65M launch vehicle from the Plesetsk Missile And Space Complex (PKMTR). Payload-class satellites include a variety of spacecraft equipped with specific instruments for various scientific and technological missions. These include communications satellites like Starlink; space stations such as the ISS; scientific satellites like the Hubble; Earth observation satellites from companies like Planet Labs, Umbra, and HawkEye 360; GPS; miniature CubeSats for education and research; and military/defense satellites.

Loading next visibility...
Identifier
27942, 2003-042D
Orbit
SSO
Country
Flag of UKUK
Related business
Manufacturer
SSTL
Mission
Non-operational Civil Imaging
Bus & Motor
SSTL-100, Unknown motor
Mass
100 kg wet, 85.4 kg dry
Launch date (UTC)
2003-09-27 (22 years ago)
Launch vehicle
KOSMOS 11K65M
Launch site
Plesetsk Missile And Space Complex (PKMTR)
Object type
Payload
Rocket body
Debris
Shape & HBR
Box + 1 Arm, 3.3 m
Radar Cross Section
0.540 m², Medium (>0.1 m² and < 1m²)

Expand to show TLE details & history
Last TLE update: 4 hours ago

TLE from 4 hours ago
0 UK-DMC
1 27942U 03042D   26034.50973248  .00001829  00000-0  20777-3 0  9992
2 27942  98.0782 221.3809 0052789 280.5795  78.9476 14.86626758202909
Epoch: 2026-02-03T12:14Z
TLE epoch observation values (Epoch: 2026-02-03T12:14:00.886Z)
Latitude
-0.00005°
Longitude
-95.81242°
Altitude
604.625 km
Speed
7.561 km/s
True Right ascension
14h 45m 31s
True Declination
0° 00' 00"
Sunlit
Object was in daylight at epoch
Visualization orbit readout
Latitude
Unknown
Longitude
Unknown
Altitude
Unknown
Speed
Unknown
Apparent Right ascension
Unknown
Apparent Declination
Unknown
Sunlit
N/A
Visualization observer readout
Local Sidereal Time
18:09:46
Azimuth
Unknown
Elevation
Unknown
Doppler factor
Unknown
Orbital elements
Apogee altitude
642.39 km
Perigee altitude
568.658 km
Semi-major axis
6,983.661 km
Eccentricity
0.00528
Inclination
98.0782°
RAAN
221.3809°
Arg. of periapsis
280.5795°
True anomaly
79.54204°
Mean anomaly
78.9476°
Eccentric anomaly
79.24475°
Mean motion
3.71893 °/min
Orbital period
96.8 mins
BSTAR
0.00020777
Loading maneuver chart data...
Computing Atmospheric mass density...
Loading historical data...
Loading historical data...
Loading historical data...
Loading historical data...
Loading historical data...
Loading historical data...
Loading historical data...

Documentation

Showing up to 5 results
|